Salt Lake City, UT

4:26 PM MDT on September 23, 2017 (GMT -0600)
Salt Lake City International

Weather History for KSLC - June, 2014

Change the Weather History Date:

Saturday, June 7, 2014

  Actual Average Record
Temperature  
Mean Temperature 68 °F 67 °F  
Max Temperature 83 °F 80 °F 100 °F (1985)
Min Temperature 53 °F 54 °F 35 °F (1962)
Degree Days  
Heating Degree Days 0 2  
Month to date heating degree days 0 20  
Since 1 June heating degree days 0 20  
Since 1 July heating degree days 5018 5581  
Cooling Degree Days 3 4  
Month to date cooling degree days 40 25  
Year to date cooling degree days 102 75  
Since 1 June cooling degree days 40 25  
Growing Degree Days 18 (Base 50)    
Moisture  
Dew Point 31 °F    
Average Humidity 40    
Maximum Humidity 72    
Minimum Humidity 8    
Precipitation  
Precipitation 0.00 in 0.05 in 0.94 in (1964)
Month to date precipitation 0.00 0.34  
Year to date precipitation 6.47 8.57  
Snow  
Snow 0.00 in 0.00 in T in (2005)
Month to date snowfall 0.0 0.0  
Since 1 July snowfall 35.5 56.2  
Snow Depth 0.00 in    
Sea Level Pressure  
Sea Level Pressure 29.81 in    
Wind  
Wind Speed 6 mph (WNW)    
Max Wind Speed 14 mph    
Max Gust Speed 20 mph    
Visibility 10 miles    
Events      
T = Trace of Precipitation, MM = Missing Value Source: NWS Daily Summary

Daily Weather History Graph

Daily Weather History Graph

Search for Another Location

Airport or City:

Trip Planner

Search our weather history database for the weather conditions in past years. The results will help you decide how hot, cold, wet, or windy it might be!

Date:

Astronomy

Jun. 07, 2014 Rise Set
Actual Time 5:56 AM MDT 8:57 PM MDT
Civil Twilight 5:23 AM MDT 9:30 PM MDT
Nautical Twilight 4:41 AM MDT 10:12 PM MDT
Astronomical Twilight 3:52 AM MDT 11:01 PM MDT
Moon 3:16 PM MDT (6/7) 2:22 AM MDT (6/7)
Length of Visible Light 16h 06m
Length of Day
15h 00m
Waxing Gibbous, 68% of the Moon is Illuminated
Jun 7
Waxing Gibbous
Jun 12
Full
Jun 19
Last Quarter
Jun 27
New
Jul 5
First Quarter

Hourly Weather History & Observations

Time (MDT) Temp. Dew Point Humidity Pressure Visibility Wind Dir Wind Speed Gust Speed Precip Events Conditions
12:53 AM 66.0 °F 42.1 °F 42% 29.76 in 10.0 mi Calm Calm - N/A   Clear
1:53 AM 61.0 °F 42.1 °F 50% 29.78 in 10.0 mi WSW 4.6 mph - N/A   Clear
2:53 AM 62.1 °F 44.1 °F 52% 29.78 in 10.0 mi SSW 4.6 mph - N/A   Clear
3:53 AM 57.0 °F 44.1 °F 62% 29.80 in 10.0 mi Calm Calm - N/A   Clear
4:53 AM 59.0 °F 44.1 °F 58% 29.80 in 10.0 mi Calm Calm - N/A   Clear
5:53 AM 57.2 °F 46.4 °F 67% 29.97 in 10.0 mi Calm Calm - N/A   Partly Cloudy
6:53 AM 57.0 °F 45.0 °F 64% 29.84 in 10.0 mi Calm Calm - N/A   Partly Cloudy
7:53 AM 63.0 °F 45.0 °F 52% 29.84 in 10.0 mi SSE 5.8 mph - N/A   Partly Cloudy
8:53 AM 68.0 °F 33.8 °F 28% 30.00 in 10.0 mi Calm Calm - N/A   Partly Cloudy
9:53 AM 72.0 °F 26.1 °F 18% 29.86 in 10.0 mi NW 10.4 mph - N/A   Partly Cloudy
10:53 AM 73.9 °F 25.0 °F 16% 29.85 in 10.0 mi NW 11.5 mph - N/A   Partly Cloudy
11:53 AM 77.0 °F 27.0 °F 16% 29.84 in 10.0 mi NW 9.2 mph - N/A   Partly Cloudy
12:53 PM 77.0 °F 28.9 °F 17% 29.85 in 10.0 mi NW 6.9 mph - N/A   Partly Cloudy
1:53 PM 79.0 °F 27.0 °F 15% 29.84 in 10.0 mi North 11.5 mph - N/A   Partly Cloudy
2:53 PM 79.0 °F 27.0 °F 15% 29.81 in 10.0 mi Calm Calm - N/A   Partly Cloudy
3:53 PM 81.0 °F 15.1 °F 8% 29.80 in 10.0 mi WNW 5.8 mph 17.3 mph N/A   Partly Cloudy
4:53 PM 82.9 °F 18.0 °F 9% 29.78 in 10.0 mi NW 6.9 mph - N/A   Partly Cloudy
5:53 PM 82.9 °F 18.0 °F 9% 29.77 in 10.0 mi NW 6.9 mph - N/A   Scattered Clouds
6:53 PM 80.1 °F 19.0 °F 10% 29.76 in 10.0 mi North 8.1 mph - N/A   Mostly Cloudy
7:53 PM 78.1 °F 15.1 °F 9% 29.75 in 10.0 mi North 4.6 mph - N/A   Mostly Cloudy
8:53 PM 75.0 °F 21.9 °F 14% 29.75 in 10.0 mi WSW 3.5 mph - N/A   Mostly Cloudy
9:53 PM 70.0 °F 27.0 °F 20% 29.76 in 10.0 mi South 4.6 mph - N/A   Mostly Cloudy
10:53 PM 70.0 °F 30.0 °F 23% 29.77 in 10.0 mi Calm Calm - N/A   Mostly Cloudy
11:53 PM 66.0 °F 36.0 °F 33% 29.77 in 10.0 mi West 5.8 mph - N/A   Mostly Cloudy